Wind_Speed
11 13 15 16 17 18 17 18 19 20 21 21 20 19 19 18 17 15 14 13 13 13 12 10 9 8 7 6 5 5 3 3 3 4 5 6 7 8 9 10 11 11 12 12
10 11 13 15 17 17 18 18 19 20 21 21 21 20 20 19 19 17 15 14 12 13 12 11 10 9 8 7 6 5 4 3 4 4 5 6 7 8 9 10 11 12 12 13
8 10 11 13 15 17 17 18 18 19 20 21 21 21 21 20 19 18 17 15 14 14 12 12 11 10 9 8 7 6 5 5 4 4 5 6 7 8 9 10 11 12 12 12
7 8 10 12 14 14 16 17 17 17 19 20 20 21 21 21 20 18 17 16 15 14 13 12 12 11 10 9 8 7 6 5 5 5 5 6 6 7 8 9 10 11 12 12
5 7 8 10 12 14 14 15 16 15 16 18 18 20 20 20 19 19 18 17 16 15 13 12 12 12 11 10 9 8 7 6 6 6 6 5 5 6 7 8 9 11 11 12
4 5 7 9 11 12 13 14 15 15 14 15 16 17 18 18 17 18 18 18 17 16 14 14 13 13 12 11 10 10 8 7 7 7 6 5 5 5 6 7 8 10 11 11
4 5 6 7 9 11 12 14 15 15 15 14 15 16 15 17 18 17 18 18 17 17 16 15 14 13 13 12 11 10 9 8 8 7 6 5 4 4 5 6 7 8 9 10
3 5 5 7 8 10 11 13 14 15 15 15 16 15 14 16 17 18 19 19 18 17 16 16 15 14 14 13 13 11 10 9 9 8 7 5 4 3 3 4 5 6 8 8
3 4 5 7 9 10 10 12 14 14 14 14 15 15 15 17 17 18 20 20 18 17 16 16 15 15 14 14 14 12 11 10 10 9 8 6 5 3 3 3 4 5 7 7
3 3 5 6 8 9 9 11 13 13 13 13 13 13 15 15 15 16 18 19 18 18 17 16 16 15 15 15 14 13 12 11 10 10 8 7 5 4 3 2 2 3 5 5
4 4 5 6 7 8 9 10 11 12 13 13 13 13 14 15 15 15 16 18 18 18 18 17 17 16 15 15 15 14 13 12 11 11 9 8 6 5 3 2 1 1 2 4
5 5 6 6 7 8 10 11 11 11 11 11 13 13 14 15 16 16 16 17 19 19 18 18 18 17 16 16 16 15 15 13 12 12 10 9 8 6 4 3 2 1 0 1
5 5 5 6 7 8 10 10 11 11 11 11 12 14 15 15 15 16 16 17 18 19 19 19 19 18 17 17 17 16 16 14 13 13 11 10 9 8 6 4 3 2 2 1
6 5 5 5 6 6 8 9 10 11 10 9 10 13 14 15 15 14 15 16 17 18 18 18 19 18 18 18 17 17 16 15 14 14 12 11 11 9 8 6 5 4 3 3
7 7 7 6 7 8 8 9 9 10 10 10 9 11 13 13 14 15 15 15 16 17 17 17 17 17 17 18 17 17 16 16 15 15 14 12 11 11 9 8 6 5 4 4
9 8 8 8 7 9 9 9 9 11 10 9 10 9 11 13 13 13 13 14 15 17 18 17 17 16 16 17 18 18 17 17 16 15 14 14 13 12 11 10 8 7 7 6
10 10 10 9 9 9 8 8 10 10 11 10 10 10 10 10 11 11 11 13 13 15 17 17 16 16 16 17 18 18 18 18 17 17 16 15 14 13 13 12 10 10 9 8
11 11 11 11 11 10 9 10 11 12 12 12 11 12 11 11 11 11 11 12 13 14 15 16 17 17 17 18 18 19 19 19 18 18 17 16 15 15 14 13 12 11 11 10
13 12 11 11 11 11 11 11 11 11 12 12 12 12 12 12 12 12 12 13 13 14 15 16 17 18 18 18 18 19 19 19 19 18 18 17 16 16 15 14 14 13 13 12
15 14 13 13 12 12 11 12 12 11 11 11 12 12 12 12 12 11 12 13 14 15 15 16 17 18 18 18 19 19 19 19 19 19 18 18 17 17 16 16 15 15 15 14
18 16 15 14 13 12 11 12 12 11 10 11 11 12 12 13 12 12 13 13 14 15 16 17 17 17 18 19 19 19 20 20 20 19 18 19 18 18 17 17 17 16 16 16
19 18 17 16 15 12 11 12 12 11 12 12 12 13 13 13 13 13 14 14 15 16 16 16 17 18 19 19 19 20 20 20 20 20 19 19 19 19 18 18 18 18 18 18
20 18 17 17 15 14 14 14 13 12 12 13 13 13 14 14 14 14 14 15 16 16 17 17 18 19 19 20 20 21 21 21 20 20 20 20 20 20 20 20 20 20 20 19
21 19 19 18 17 16 15 15 14 13 13 14 14 14 15 14 13 14 15 16 16 17 18 18 18 19 20 20 20 22 22 22 22 21 21 21 22 22 21 21 21 21 21 21
22 22 20 19 19 18 18 17 16 15 15 15 16 16 16 16 16 16 16 17 18 18 19 19 19 20 20 21 22 22 23 23 23 23 23 23 23 23 23 24 24 24 24 24
25 24 22 21 20 20 19 19 18 17 16 17 17 18 18 19 19 19 19 19 19 20 20 21 21 22 22 22 23 24 24 24 24 25 25 25 25 26 26 26 26 26 26 26
Wind_Direction
243 238 235 230 227 228 226 223 219 219 217 217 217 217 217 216 213 211 213 211 207 206 205 202 201 198 196 197 191 185 173 143 115 100 88 78 64 56 52 50 48 47 45 46
241 237 235 230 226 224 222 220 220 218 217 217 214 212 214 211 209 207 208 209 208 203 203 202 201 200 197 193 190 181 170 156 133 113 98 81 69 62 59 55 52 50 49 49
251 242 237 230 224 224 224 222 218 219 219 217 217 216 215 212 210 208 208 206 205 204 203 204 203 200 196 196 191 181 173 163 142 121 106 91 78 70 64 58 55 52 52 53
252 241 234 228 225 224 223 219 216 219 218 216 216 214 213 213 213 209 206 205 206 206 207 209 204 199 198 198 192 185 174 165 149 138 124 104 86 75 67 59 55 53 54 55
255 239 233 227 225 223 222 222 221 220 216 213 212 213 212 212 211 209 206 204 204 206 207 207 203 202 200 198 194 188 177 173 162 150 135 117 94 80 71 62 57 54 55 55
251 240 227 221 223 220 219 220 222 221 218 216 214 215 210 213 209 209 209 205 205 207 207 206 202 201 199 200 195 187 182 180 172 160 145 131 109 92 76 65 56 54 53 54
250 237 223 217 214 214 217 219 219 219 220 217 214 216 211 212 209 207 205 202 205 207 204 202 202 202 201 201 197 191 187 186 180 169 158 146 128 107 86 68 58 54 51 53
247 236 223 215 211 208 212 214 216 218 218 216 217 218 212 211 207 204 201 200 201 202 203 204 204 204 203 203 199 197 195 193 188 180 172 162 148 128 101 73 58 53 52 57
247 234 223 213 211 210 206 206 210 215 215 213 214 213 209 209 208 204 202 200 198 201 202 203 203 202 202 202 201 200 197 195 192 188 182 176 165 148 120 84 65 56 53 59
235 223 214 212 212 211 206 201 203 206 208 211 209 205 202 204 203 201 202 200 199 200 201 203 204 204 203 204 204 201 198 199 197 195 191 186 177 164 142 112 83 61 55 57
223 214 208 208 206 206 203 198 198 204 208 212 207 203 201 201 202 201 200 199 198 200 201 203 205 205 205 205 204 202 202 203 203 202 199 194 190 186 176 157 134 82 58 57
230 221 212 212 210 203 200 202 205 208 211 212 207 202 204 201 201 201 200 199 202 202 201 204 207 206 206 206 206 206 206 208 208 207 205 202 200 199 197 195 185 172 106 58
234 225 222 220 216 210 209 210 211 212 213 211 211 203 202 200 201 201 201 200 200 202 204 206 209 208 208 209 209 208 208 211 212 211 210 209 209 208 209 213 215 219 227 246
224 224 223 216 212 213 213 215 219 219 216 211 213 206 203 203 202 201 201 203 200 199 199 202 206 207 208 209 210 210 210 212 213 214 214 215 215 215 217 221 228 234 237 243
223 221 218 217 212 213 211 213 219 217 213 213 210 203 201 205 204 204 203 203 201 198 197 201 204 206 209 210 211 211 213 214 216 218 219 220 221 222 223 226 233 240 245 251
224 221 220 221 222 221 219 217 213 211 210 210 209 206 205 206 206 205 204 204 203 200 199 202 205 207 210 213 214 215 216 217 218 220 222 224 227 228 229 231 236 243 249 255
222 220 222 223 224 226 224 220 211 209 209 214 215 214 214 213 211 210 209 205 202 201 202 206 207 209 212 215 217 218 218 220 221 223 225 227 229 232 233 235 240 244 249 254
219 219 225 226 226 224 219 219 215 213 212 213 211 214 216 215 214 211 209 205 204 206 208 210 210 213 215 217 219 220 221 222 225 227 228 229 231 234 237 239 241 245 249 253
223 224 226 225 225 223 220 221 219 218 217 216 218 219 222 222 221 219 214 212 210 211 213 214 215 216 218 219 221 222 224 225 226 228 230 232 234 236 238 241 244 247 251 254
225 228 229 226 225 224 221 221 219 221 218 218 219 221 226 229 229 226 223 220 217 218 218 219 219 219 219 221 223 223 224 226 228 229 231 234 236 238 240 243 246 250 253 256
227 229 228 227 228 226 222 224 224 226 223 222 222 222 225 229 228 228 225 225 222 221 223 222 221 221 221 222 223 223 224 225 228 230 232 236 238 240 242 245 249 252 255 258
228 231 230 229 228 228 226 229 230 231 227 225 225 225 226 228 228 229 228 226 225 225 225 225 224 224 224 225 224 224 224 226 230 232 235 238 240 242 244 247 252 255 258 260
229 231 233 232 232 232 230 231 233 234 230 228 229 230 231 231 232 232 232 231 229 228 228 228 228 227 227 227 227 226 227 229 231 234 237 241 243 244 247 250 253 256 259 262
229 230 233 232 231 231 233 235 237 238 236 231 231 233 234 234 233 235 236 235 233 233 233 233 233 232 231 229 229 229 230 232 234 236 239 243 246 247 250 252 255 258 260 263
229 231 234 236 235 236 238 241 242 241 242 242 238 237 238 237 236 236 237 236 236 237 238 238 237 236 236 235 234 234 235 237 239 241 243 247 250 251 253 255 257 259 261 264
230 232 234 236 237 238 239 242 245 246 246 245 245 244 242 242 240 239 239 240 240 240 241 241 240 240 240 240 240 240 240 241 243 245 247 250 253 254 255 257 259 261 263 265
Height
5824 5826 5827 5828 5830 5831 5833 5836 5838 5842 5844 5847 5851 5854 5857 5859 5862 5864 5867 5869 5871 5873 5876 5878 5879 5880 5881 5882 5883 5884 5884 5884 5884 5884 5883 5883 5882 5880 5879 5877 5876 5874 5872 5869
5823 5823 5824 5825 5826 5828 5830 5833 5835 5838 5841 5844 5847 5850 5853 5856 5859 5861 5864 5867 5869 5871 5874 5876 5878 5879 5880 5881 5882 5883 5884 5884 5884 5884 5884 5883 5882 5881 5880 5879 5877 5875 5873 5871
5820 5821 5821 5822 5824 5826 5828 5830 5833 5835 5838 5841 5844 5848 5850 5853 5856 5859 5862 5865 5867 5870 5872 5874 5876 5878 5879 5880 5882 5883 5883 5884 5884 5884 5884 5884 5883 5882 5881 5880 5878 5876 5874 5872
5818 5819 5819 5820 5822 5823 5826 5828 5830 5832 5835 5838 5841 5844 5847 5850 5853 5856 5859 5863 5865 5868 5870 5872 5874 5876 5878 5879 5881 5882 5883 5884 5884 5884 5884 5884 5884 5883 5882 5881 5880 5878 5876 5874
5817 5817 5818 5819 5820 5822 5824 5826 5828 5830 5832 5835 5838 5841 5845 5846 5850 5853 5857 5860 5863 5865 5867 5870 5872 5874 5877 5878 5880 5881 5882 5883 5884 5884 5884 5885 5884 5884 5883 5882 5881 5880 5878 5876
5816 5815 5816 5817 5818 5820 5822 5824 5826 5827 5830 5833 5836 5838 5842 5844 5848 5851 5854 5857 5861 5863 5866 5868 5870 5873 5875 5877 5879 5880 5882 5883 5884 5884 5884 5885 5885 5884 5884 5883 5882 5881 5880 5878
5815 5815 5815 5816 5817 5818 5820 5823 5824 5826 5828 5831 5833 5835 5840 5843 5845 5848 5851 5855 5858 5861 5864 5866 5869 5871 5874 5876 5878 5879 5881 5882 5883 5884 5884 5885 5885 5885 5885 5884 5883 5882 5881 5880
5814 5814 5814 5815 5816 5817 5818 5821 5823 5825 5827 5829 5831 5833 5838 5840 5842 5845 5849 5852 5855 5858 5861 5864 5867 5869 5872 5874 5876 5878 5880 5881 5882 5883 5884 5885 5885 5885 5885 5885 5884 5883 5882 5881
5813 5813 5813 5813 5814 5815 5817 5818 5821 5823 5824 5827 5829 5832 5835 5837 5839 5842 5846 5849 5852 5856 5859 5862 5865 5867 5870 5872 5875 5877 5878 5880 5881 5883 5884 5884 5885 5885 5885 5885 5884 5884 5883 5882
5812 5812 5812 5813 5813 5814 5816 5816 5819 5820 5822 5825 5827 5829 5832 5834 5837 5840 5843 5847 5850 5854 5857 5860 5862 5865 5867 5870 5873 5875 5877 5879 5880 5882 5883 5884 5884 5885 5885 5885 5885 5884 5883 5883
5811 5812 5812 5812 5812 5813 5815 5816 5817 5818 5821 5823 5825 5830 5830 5832 5835 5838 5841 5844 5847 5851 5854 5857 5860 5862 5865 5868 5871 5873 5875 5877 5879 5880 5882 5883 5884 5884 5885 5885 5884 5884 5884 5883
5810 5810 5810 5811 5812 5812 5813 5814 5816 5818 5819 5821 5823 5829 5828 5830 5832 5835 5838 5841 5844 5848 5851 5854 5857 5860 5863 5866 5868 5871 5873 5875 5877 5879 5880 5881 5882 5883 5884 5884 5884 5884 5883 5883
5808 5809 5810 5810 5812 5812 5812 5813 5814 5816 5818 5819 5821 5827 5826 5828 5830 5833 5835 5838 5841 5845 5848 5851 5854 5857 5860 5863 5866 5868 5871 5873 5875 5877 5878 5880 5881 5882 5882 5883 5883 5883 5883 5883
5807 5808 5809 5810 5809 5810 5810 5812 5813 5814 5816 5818 5820 5823 5824 5826 5828 5831 5833 5836 5839 5842 5845 5848 5851 5855 5858 5861 5863 5866 5868 5871 5873 5875 5876 5878 5879 5880 5881 5881 5882 5882 5882 5882
5805 5806 5806 5807 5808 5808 5809 5810 5811 5813 5815 5817 5819 5820 5823 5825 5827 5829 5831 5834 5836 5839 5842 5846 5849 5852 5855 5858 5861 5863 5866 5868 5870 5872 5874 5875 5876 5878 5879 5879 5880 5880 5880 5880
5802 5804 5805 5806 5806 5806 5807 5808 5809 5811 5813 5815 5817 5819 5821 5823 5825 5827 5829 5831 5834 5837 5840 5843 5846 5850 5853 5855 5858 5860 5863 5865 5867 5869 5871 5872 5874 5875 5876 5877 5877 5878 5878 5878
5800 5801 5803 5804 5804 5805 5807 5807 5808 5810 5811 5813 5815 5818 5820 5822 5823 5825 5827 5829 5832 5835 5838 5841 5844 5847 5850 5852 5854 5857 5859 5862 5864 5866 5868 5869 5871 5872 5873 5874 5875 5875 5875 5876
5797 5799 5800 5801 5803 5804 5807 5805 5806 5808 5809 5812 5814 5816 5818 5820 5821 5823 5825 5827 5830 5833 5836 5838 5841 5843 5846 5849 5851 5854 5856 5858 5860 5862 5864 5866 5867 5868 5870 5871 5871 5872 5872 5872
5795 5796 5797 5799 5800 5801 5803 5804 5804 5806 5807 5809 5811 5814 5815 5817 5819 5821 5823 5825 5827 5830 5832 5835 5838 5840 5843 5845 5848 5850 5852 5854 5856 5858 5860 5862 5863 5865 5866 5867 5867 5868 5869 5869
5792 5793 5795 5796 5797 5799 5801 5801 5802 5804 5805 5807 5809 5811 5813 5815 5817 5819 5821 5823 5825 5827 5829 5831 5834 5836 5839 5841 5844 5846 5848 5850 5852 5854 5856 5857 5859 5860 5862 5863 5863 5864 5865 5865
5788 5789 5791 5792 5793 5795 5798 5798 5800 5803 5805 5805 5806 5808 5810 5812 5815 5816 5817 5819 5821 5823 5825 5828 5830 5832 5835 5837 5839 5842 5844 5846 5848 5850 5852 5853 5855 5856 5857 5858 5859 5859 5860 5860
5784 5786 5787 5789 5790 5795 5795 5796 5798 5800 5801 5802 5803 5805 5807 5809 5811 5812 5814 5816 5818 5820 5822 5824 5826 5828 5831 5833 5835 5837 5840 5842 5844 5846 5847 5849 5850 5851 5852 5853 5854 5855 5855 5855
5779 5782 5784 5786 5789 5790 5791 5793 5794 5795 5797 5799 5800 5802 5804 5806 5807 5809 5811 5813 5814 5816 5818 5820 5822 5824 5826 5829 5831 5833 5835 5837 5839 5841 5842 5844 5845 5846 5847 5848 5849 5849 5850 5850
5774 5777 5779 5781 5783 5785 5787 5789 5790 5792 5793 5795 5797 5799 5800 5802 5804 5806 5807 5809 5811 5812 5814 5816 5818 5820 5822 5824 5826 5828 5830 5832 5834 5835 5837 5838 5839 5840 5841 5842 5843 5843 5843 5844
5769 5772 5774 5776 5779 5780 5783 5784 5786 5788 5789 5791 5793 5795 5796 5798 5800 5802 5803 5805 5807 5808 5810 5812 5813 5815 5817 5819 5821 5823 5825 5826 5828 5830 5831 5832 5833 5834 5835 5836 5836 5836 5837 5837
5763 5766 5769 5771 5774 5776 5778 5780 5782 5783 5785 5787 5788 5790 5791 5793 5795 5797 5798 5800 5802 5803 5805 5807 5808 5810 5812 5813 5815 5817 5818 5820 5822 5823 5824 5825 5826 5827 5828 5828 5829 5829 5829 5829